Regional Weather Roundup
Issued by NWS

Home | Current Version | Previous Version | Text Only | Print | Product List | Glossary On
Versions: 1 2 3 4 5 6 7 8 9 10 11 12 13 14 15 16 17 18 19 20 21 22 23 24 25 26 27 28 29 30 31 32 33 34 35 36 37 38 39 40 41 42 43 44 45 46 47 48 49 50
000
ASUS43 KDTX 270601
RWRMI
MICHIGAN HOURLY REGIONAL WEATHER ROUNDUP
NATIONAL WEATHER SERVICE DETROIT/PONTIAC MI
200 AM EDT WED MAY 27 2015

NOTE: "FAIR" INDICATES FEW OR NO CLOUDS BELOW 12,000 FEET WITH NO
SIGNIFICANT WEATHER AND/OR OBSTRUCTION TO VISIBILITY.

MIZ047>049-052>055-059>063-066>070-074>076-081>083-270700-
SOUTHEAST LOWER MICHIGAN

CITY           SKY/WX    TMP DP  RH WIND       PRES   REMARKS
ADRIAN         MOCLDY    67  65  93 W3        29.94R
6HR MIN TEMP:  67; 6HR MAX TEMP:  71;

ALMA           PTCLDY    67  62  85 S9        29.84F
ANN ARBOR      MOCLDY    67  65  93 S8        29.91S
BAD AXE        CLOUDY    68  63  82 SW10      29.85F
CARO           MOCLDY    67  65  91 S9        29.85S
DETROIT        CLOUDY    71  66  84 S13       29.92S
6HR MIN TEMP:  69; 6HR MAX TEMP:  72; 6HR PCP:  0.01;

FLINT          MOCLDY    71  63  75 SW12      29.88S
6HR MIN TEMP:  70; 6HR MAX TEMP:  74; 6HR PCP:  0.01;

GROSSE ILE     MOCLDY    70  66  88 S10       29.91S
HILLSDALE      PTCLDY    67  63  87 SW6       29.94R
HOWELL         MOCLDY    67  63  85 SW7       29.91R
6HR MIN TEMP:  67; 6HR MAX TEMP:  71;


CITY           SKY/WX    TMP DP  RH WIND       PRES   REMARKS
JACKSON        PTCLDY    66  59  78 SW8       29.92R
6HR MIN TEMP:  66; 6HR MAX TEMP:  69; 6HR PCP:  0.01;

LAMBERTVILLE   PTCLDY    70  64  83 SW8       29.94R
LANSING        CLEAR     67  60  78 SW14      29.88S
6HR MIN TEMP:  66; 6HR MAX TEMP:  70;

LAPEER         MOCLDY    68  64  85 SW12G17   29.88S
MASON          PTCLDY    64  59  83 CALM      29.90R
MONROE         MOCLDY    70  64  83 SW8       29.91S
MT. CLEMENS    MOCLDY    69  66  91 S10       29.88F
6HR MIN TEMP:  67; 6HR MAX TEMP:  71; 6HR PCP:  0.06;

PONTIAC        MOCLDY    68  65  90 S9        29.90S
6HR MIN TEMP:  68; 6HR MAX TEMP:  70; 6HR PCP:  0.01;

PORT HOPE        N/A    N/A N/A N/A VRB7      29.81F
                                      6HR PCP:  0.06;

PORT HURON     MOCLDY    66  64  94 S10       29.90F
TRI CITIES     PTCLDY    69  61  75 SW14G21   29.84R
6HR MIN TEMP:  69; 6HR MAX TEMP:  72; 6HR PCP: TRACE;

MIDLAND        FAIR      67  61  83 SW8G16    29.82S
TROY           CLOUDY    69  67  92 SW9       29.92S
SAGINAW HB     PTCLDY    68  64  88 S14G20    29.84S
$$
MIZ043>046-050>051-056>058-064>065-071>073-077>080-270700-
SOUTHWEST LOWER MICHIGAN

CITY           SKY/WX    TMP DP  RH WIND       PRES   REMARKS
BATTLE CREEK   CLEAR     67  60  78 SW12      29.90F
6HR MIN TEMP:  66; 6HR MAX TEMP:  71; 6HR PCP: TRACE;

BENTON HARBOR  PTCLDY    66  60  81 S7        29.86F
6HR MIN TEMP:  66; 6HR MAX TEMP:  74;

BIG RAPIDS     PTCLDY    64  58  83 SW9G18    29.80S
6HR MIN TEMP:  64; 6HR MAX TEMP:  69;

COLDWATER      PTCLDY    65  58  80 S6        29.92S
6HR MIN TEMP:  64; 6HR MAX TEMP:  70;

FREMONT        FAIR      61  59  92 SW9       29.81S
HOLLAND        CLOUDY    69  61  75 SW17G24   29.85F
6HR MIN TEMP:  67; 6HR MAX TEMP:  73;

GRAND RAPIDS   CLEAR     66  61  84 SW14      29.85S
6HR MIN TEMP:  66; 6HR MAX TEMP:  69;

IONIA          FAIR      67  60  77 SW12G18   29.85S
KALAMAZOO      CLEAR     67  60  78 SW9       29.89F
6HR MIN TEMP:  66; 6HR MAX TEMP:  72;

LUDINGTON      CLEAR     64  58  78 SW22G31   29.76S
6HR MIN TEMP:  61; 6HR MAX TEMP:  71;

MARSHALL       PTCLDY    66  60  80 S6        29.90S
MOUNT PLEASANT PTCLDY    66  61  84 SW9G17    29.81F
6HR MIN TEMP:  66; 6HR MAX TEMP:  71;

MUSKEGON       PTCLDY    62  56  80 S15G25    29.82F
6HR MIN TEMP:  61; 6HR MAX TEMP:  69; 6HR PCP: TRACE;

SOUTH HAVEN    PTCLDY    67  60  79 S7        29.86F
$$
MIZ016>042-270700-
NORTHERN LOWER MICHIGAN

CITY           SKY/WX    TMP DP  RH WIND       PRES   REMARKS
ALPENA         MOCLDY    67  64  90 S9        29.75S
6HR MIN TEMP:  65; 6HR MAX TEMP:  68; 6HR PCP:  0.45;

BEAVER ISLAND  CLOUDY    63  60  91 S15       29.68S
6HR MIN TEMP:  55; 6HR MAX TEMP:  63;

BELLAIRE       CLOUDY    65  61  85 S8        29.72S
6HR MIN TEMP:  65; 6HR MAX TEMP:  69;

CADILLAC       PTCLDY    62  58  87 S15G22    29.77S
CHARLEVOIX     MOCLDY    65  62  90 S6        29.72F
6HR MIN TEMP:  64; 6HR MAX TEMP:  66;

FRANKFORT      CLOUDY    62  52  69 S15G29    29.72F
GAYLORD        CLOUDY    64  63  96 SW14      29.74F
6HR MIN TEMP:  64; 6HR MAX TEMP:  68; 6HR PCP:  0.17;

GRAYLING       PTCLDY    64  61  88 S6G18     29.77S
HARBOR SPRINGS MOCLDY    63  60  91 S6        29.70F
HOUGHTON LAKE  MOCLDY    65  61  87 S14G23    29.79S
6HR MIN TEMP:  65; 6HR MAX TEMP:  68; 6HR PCP: TRACE;

MANISTEE       CLEAR     63  54  72 SW12G21   29.75S
OSCODA         CLEAR     65  63  91 S12       29.79S
PELLSTON       CLOUDY    65  63  93 S9        29.70S
6HR MIN TEMP:  63; 6HR MAX TEMP:  66; 6HR PCP:  0.06;

ROGERS CITY    PTCLDY    67  65  93 S9G17     29.74S
TRAVERSE CITY  CLOUDY    67  59  75 VRB7G21   29.70R
6HR MIN TEMP:  66; 6HR MAX TEMP:  72;

$$
MIZ007>008-015-270700-
EASTERN UPPER MICHIGAN

CITY           SKY/WX    TMP DP  RH WIND       PRES   REMARKS
KINROSS        CLOUDY    61  61 100 SE7       29.69S
6HR MIN TEMP:  61; 6HR MAX TEMP:  66;

MACKINAC ISLAN CLOUDY    63  63 100 S8        29.69R
NEWBERRY       CLOUDY    61  61  99 S7        29.66F FOG
6HR MIN TEMP:  61; 6HR MAX TEMP:  64; 6HR PCP:  0.38;

S. S. MARIE    CLOUDY    60  59  96 CALM      29.69S
6HR MIN TEMP:  60; 6HR MAX TEMP:  68; 6HR PCP:  0.06;

$$
MIZ004>006-011>014-085-270700-
CENTRAL UPPER MICHIGAN

CITY           SKY/WX    TMP DP  RH WIND       PRES   REMARKS
MANISTIQUE     FOG       51  50  97 S7        29.66S VSB 3/4
6HR MIN TEMP:  51; 6HR MAX TEMP:  61; 6HR PCP:  0.09;

ESCANABA       CLOUDY    52  48  87 E5        29.62F
6HR MIN TEMP:  52; 6HR MAX TEMP:  63;

MENOMINEE      MOCLDY    61  57  88 SW13      29.60F
6HR MIN TEMP:  54; 6HR MAX TEMP:  61; 6HR PCP:  0.02;

SAWYER-GWINN   RAIN      52  51  95 NE10      29.63F
$$
MIZ001>003-009>011-084-270700-
WESTERN UPPER MICHIGAN

CITY           SKY/WX    TMP DP  RH WIND       PRES   REMARKS
IRON MOUNTAIN  LGT RAIN  56  54  93 N6        29.62S FOG
6HR MIN TEMP:  56; 6HR MAX TEMP:  64; 6HR PCP:  0.79;

HOUGHTON       LGT RAIN  52  50  93 N5        29.69F
6HR MIN TEMP:  49; 6HR MAX TEMP:  54; 6HR PCP:  0.16;

COPPER HARBOR    N/A     40  39  97 CALM      29.70F
6HR MIN TEMP:  39; 6HR MAX TEMP:  47; 6HR PCP:  0.15;

IRONWOOD       CLOUDY    48  48 100 W6        29.73S
6HR MIN TEMP:  46; 6HR MAX TEMP:  54;

$$

ABBREVIATIONS USED IN REMARKS
   TC - TEMPERATURE IN CELSIUS
  WCI - WIND CHILL INDEX
   HX - HEAT INDEX
  VSB - VISIBILITY



USA.gov is the U.S. government's official web portal to all federal, state and local government web resources and services.